Location: Colle Santa Colomba
(42.0333°N, 12.5667°E)
Time: 02:47:55
(UTC+00:00)

NOSS 2-3 (E) - Pass Details

Date: 25 October 2021
Orbit: 540 x 1670 km, 63.4° (Epoch: 25 November)

Event Time Altitude Azimuth Distance (km) Brightness Sun altitude
Rises 16:36:16 0° 205° (SSW) 2,684 7.4 -5.0°
Reaches altitude 10° 16:38:23 10° 202° (SSW) 1,799 6.5 -5.4°
Maximum altitude 16:42:15 62° 121° (ESE) 642 3.5 -6.1°
Drops below altitude 10° 16:46:38 10° 41° (NE) 2,035 5.7 -6.9°
Enters shadow 16:48:55 - 38° (NE) 2,980 6.6 -7.3°
